Location: Luxembourg
(49.6117°N, 6.1300°E)
Time: 18:25:00
(UTC+01:00)

OTV 5 (USA 277) - Pass Details

Date: 29 January 2019
Orbit: 342 x 346 km, 54.5° (Epoch: 17 February)

Event Time Altitude Azimuth Distance (km) Brightness Sun altitude
Exits shadow 07:29:11 - 254° (WSW) 1,597 ? -7.3°
Reaches altitude 10° 07:29:56 10° 256° (WSW) 1,293 ? -7.2°
Maximum altitude 07:32:46 60° 338° (NNW) 400 ? -6.7°
Drops below altitude 10° 07:35:38 10° 59° (ENE) 1,299 ? -6.3°
Sets 07:37:39 0° 63° (ENE) 2,141 ? -6.0°
